TimeCST,TemperatureF,Dew PointF,Humidity,Sea Level PressureIn,VisibilityMPH,Wind Direction,Wind SpeedMPH,Gust SpeedMPH,PrecipitationIn,Events,Conditions,WindDirDegrees,DateUTC
12:53 AM,34.0,19.9,56,30.26,10.0,South,11.5,-,N/A,,Clear,190,2013-01-07 06:53:00
1:53 AM,33.1,19.9,59,30.25,10.0,South,10.4,-,N/A,,Clear,190,2013-01-07 07:53:00
2:53 AM,34.0,21.0,59,30.24,10.0,South,8.1,-,N/A,,Clear,190,2013-01-07 08:53:00
3:53 AM,33.1,21.0,61,30.23,10.0,SSW,12.7,-,N/A,,Clear,200,2013-01-07 09:53:00
4:53 AM,32.0,21.0,64,30.22,10.0,SSW,10.4,-,N/A,,Clear,200,2013-01-07 10:53:00
5:53 AM,32.0,19.9,61,30.22,10.0,South,8.1,-,N/A,,Clear,190,2013-01-07 11:53:00
6:53 AM,33.1,19.9,59,30.22,10.0,South,13.8,-,N/A,,Clear,180,2013-01-07 12:53:00
7:53 AM,32.0,19.9,61,30.20,10.0,South,11.5,-,N/A,,Clear,190,2013-01-07 13:53:00
8:53 AM,36.0,19.9,52,30.22,10.0,SSW,10.4,-,N/A,,Clear,200,2013-01-07 14:53:00
9:53 AM,41.0,21.0,45,30.21,10.0,South,13.8,20.7,N/A,,Clear,190,2013-01-07 15:53:00
10:53 AM,43.0,23.0,45,30.21,10.0,SSW,16.1,23.0,N/A,,Clear,200,2013-01-07 16:53:00
11:53 AM,48.0,24.1,39,30.15,10.0,SSW,9.2,-,N/A,,Clear,210,2013-01-07 17:53:00
12:53 PM,50.0,24.8,37,30.10,10.0,SSW,15.0,23.0,N/A,,Clear,200,2013-01-07 18:53:00
1:53 PM,50.0,25.0,38,30.09,10.0,South,12.7,-,N/A,,Clear,190,2013-01-07 19:53:00
2:53 PM,51.1,25.0,36,30.08,10.0,South,10.4,-,N/A,,Clear,170,2013-01-07 20:53:00
3:53 PM,51.1,25.0,36,30.07,10.0,South,12.7,19.6,N/A,,Clear,180,2013-01-07 21:53:00
4:53 PM,46.4,24.8,43,30.04,10.0,South,8.1,-,N/A,,Clear,170,2013-01-07 22:53:00
5:53 PM,46.0,25.0,44,30.05,10.0,South,11.5,-,N/A,,Clear,170,2013-01-07 23:53:00
6:53 PM,44.1,25.0,47,30.06,10.0,South,8.1,-,N/A,,Clear,170,2013-01-08 00:53:00
7:53 PM,43.0,26.1,51,30.04,10.0,South,12.7,-,N/A,,Clear,190,2013-01-08 01:53:00
8:53 PM,42.1,26.1,53,30.05,10.0,South,9.2,-,N/A,,Clear,190,2013-01-08 02:53:00
9:53 PM,42.1,26.1,53,30.04,10.0,South,9.2,-,N/A,,Clear,190,2013-01-08 03:53:00
10:53 PM,39.9,27.0,60,30.03,10.0,South,8.1,-,N/A,,Clear,190,2013-01-08 04:53:00
11:53 PM,41.0,26.1,55,30.03,10.0,South,9.2,-,N/A,,Clear,190,2013-01-08 05:53:00